Volver al catálogo

ONEWEB-0396

ActivoComunicacionesPO
NORAD 50476·PAYLOAD·🇬🇧 United Kingdom

Lanzado Dec 27, 2021 desde Baikonur Cosmodrome

Loading…

Próximos Pases (próximas 24 horas)

TLE

ActualizadoSource: CelesTrak SupGP

Época: Sep 14, 2026, 22:28 UTC

1 50476C 21132H   26257.93661296  .00001702  00000+0  43222-2 0  2576
2 50476  87.9166 317.6259 0002124 103.1133 292.3668 13.18685172    14

Sigue ONEWEB-0396 en tiempo real con AllMySat

Download on the App Store